Regional Weather Roundup
Issued by NWS

Home | Current Version | Previous Version | Text Only | Print | Product List | Glossary Off
Versions: 1 2 3 4 5 6 7 8 9 10 11 12 13 14 15 16 17 18 19 20 21 22 23 24 25 26 27 28 29 30 31 32 33 34 35 36 37 38 39 40 41 42 43 44 45 46 47 48 49 50

000
ASUS43 KDMX 202307
RWRIA

WEATHER ROUNDUP FOR IOWA
NATIONAL WEATHER SERVICE DES MOINES IA
500 PM CST SAT DEC 20 2014

NOTE: "FAIR" INDICATES FEW OR NO CLOUDS BELOW 12,000 FEET WITH NO
SIGNIFICANT WEATHER AND/OR OBSTRUCTIONS TO VISIBILITY.

* - THESE STATIONS ARE NOT NWS STATIONS...THUS NOT UNDER NWS
QUALITY CONTROL.  THEY ALSO DO NOT REPORT WEATHER SUCH
AS PRECIPITATION OR FOG.

IAZ001>003-012>014-020>022-031>034-043>046-210000-
   NORTHWEST IOWA

CITY           SKY/WX    TMP DP  RH WIND       PRES   REMARKS
CARROLL *      CLOUDY    34  32  93 SE9       30.08F WCI  26
CHEROKEE *     CLOUDY    32  32 100 S10       30.07R WCI  24
DENISON *      CLOUDY    32  32 100 S10       30.06S WCI  24
LE MARS *      CLOUDY    32  30  93 S9        30.06S FOG     WCI  24
ORANGE CITY *  CLOUDY    32  28  86 S8        30.05R FOG     WCI  25
SHELDON *      CLOUDY    32  32 100 S9        30.04R FOG     WCI  24
SIOUX CITY     CLOUDY    33  30  88 S12       30.08R FOG     WCI  24
SPENCER        CLOUDY    32  28  85 S8        30.07R WCI  25
STORM LAKE *   CLOUDY    32  30  93 S14       30.07S WCI  22
$$

IAZ055>058-069>071-079>083-090>094-210000-
   SOUTHWEST IOWA

CITY           SKY/WX    TMP DP  RH WIND       PRES   REMARKS
ATLANTIC *     CLOUDY    34  32  93 S10       30.09S FOG     WCI  26
AUDUBON *      PTCLDY    34  28  80 S8        30.09S WCI  27
CLARINDA *     CLOUDY    34  34 100 S6        30.12F FOG     WCI  29
COUNCIL BLFS * CLOUDY    32  32 100 SE10      30.06F FOG     WCI  24
CRESTON *      CLOUDY    34  34 100 S7        30.10S FOG     WCI  28
HARLAN  *      CLOUDY    32  32 100 S8        30.12S FOG     WCI  25
LAMONI         CLOUDY    35  35 100 SE5       30.12S FOG     WCI  31
RED OAK *      CLOUDY    34  32  93 SE7       30.10S FOG     WCI  28
SHENANDOAH *   CLOUDY    36  34  93 S8        30.11S FOG     WCI  29
$$

IAZ047>049-059>061-072>074-084-210000-
   CENTRAL IOWA

CITY           SKY/WX    TMP DP  RH WIND       PRES   REMARKS
AMES           CLOUDY    33  31  92 SE6       30.12F FOG     WCI  28
ANKENY *       CLOUDY    34  34 100 SE7       30.13F FOG     WCI  28
CHARITON *     CLOUDY    36  34  93 S7        30.13S FOG     WCI  30
DES MOINES     DRIZZLE   36  33  89 SE8       30.13S FOG     WCI  30
GRINNELL*      CLOUDY    34  32  93 SE6       30.15R FOG     WCI  29
KNOXVILLE *    CLOUDY    36  34  93 S6        30.13S FOG     WCI  31
MARSHALLTOWN   CLOUDY    32  31  96 SE6       30.13S FOG     WCI  26
PELLA *        CLOUDY    34  34 100 SE3       30.16S FOG
PERRY *        CLOUDY    34  34 100 SE6       30.11S FOG     WCI  29
$$

IAZ004>006-015-016-023>025-035-036-210000-
   NORTH CENTRAL IOWA

CITY           SKY/WX    TMP DP  RH WIND       PRES   REMARKS
ALGONA *       CLOUDY    32  32 100 S9        30.10S FOG     WCI  24
CLARION *      CLOUDY    32  32 100 SE10      30.11S FOG     WCI  24
ESTHERVILLE    CLOUDY    31  28  89 S9        30.07S WCI  23
FORT DODGE *   CLOUDY    32  28  86 SE7       30.11S WCI  26
MASON CITY     CLOUDY    30  27  88 SE6       30.14R WCI  24
FOREST CITY *  CLOUDY    32  30  93 SE7       30.11S WCI  26
IOWA FALLS *   CLOUDY    32  30  93 SE9       30.13F WCI  24
$$

IAZ007>011-017>019-026>030-037>042-050>054-066-210000-
   NORTHEAST IOWA

CITY           SKY/WX    TMP DP  RH WIND       PRES   REMARKS
CEDAR RAPIDS   FOG       31  31 100 SE6       30.17R VSB 3/4 WCI  25
CHARLES CITY * CLOUDY    30  30 100 S6        30.15R WCI  24
CLINTON *      CLOUDY    34  27  75 SE9       30.24S WCI  26
DECORAH *      CLOUDY    30  30 100 SE8       30.14F FOG     WCI  23
DUBUQUE        CLOUDY    30  26  85 S8        30.19R FOG     WCI  22
MONTICELLO *   MIX PCPN  32  32 100 SE9       30.18S WCI  24
OELWEIN *      CLOUDY    32  32 100 S7        30.16S FOG     WCI  26
WATERLOO       CLOUDY    32  31  96 SE7       30.16R FOG     WCI  26
$$

IAZ064-065-067-068-078-210000-
   EAST CENTRAL IOWA

CITY           SKY/WX    TMP DP  RH WIND       PRES   REMARKS
DAVENPORT      CLOUDY    33  27  78 SE8       30.21R WCI  26
IOWA CITY      CLOUDY    32  31  96 SE6       30.20S FOG     WCI  26
MT. PLEASANT * CLOUDY    34  34 100 SE6       30.19S FOG     WCI  29
MUSCATINE *    CLOUDY    34  32  93 SE5       30.21S FOG     WCI  30
QUAD CITIES    CLOUDY    34  28  79 SE5       30.21R HAZE    WCI  30
$$

IAZ062-063-075>077-085>089-095>099-210000-
   SOUTHEAST IOWA

CITY           SKY/WX    TMP DP  RH WIND       PRES   REMARKS
BURLINGTON     CLOUDY    35  33  92 SE6       30.19S FOG     WCI  30
FAIRFIELD *    CLOUDY    34  32  93 SE7       30.17S FOG     WCI  28
FORT MADISON * CLOUDY    37  36  93 S6        30.20S FOG     WCI  33
KEOKUK *       CLOUDY    36  36 100 CALM      30.19R FOG
OSKALOOSA *    FOG       34  32  93 SE6       30.17R VSB 1   WCI  29
CENTERVILLE *  CLOUDY    36  36 100 S5        30.16S FOG     WCI  32
OTTUMWA        CLOUDY    35  33  92 SE6       30.16R FOG     WCI  30
WASHINGTON *   CLOUDY    34  34 100 SE7       30.18S FOG     WCI  28
$$

ABBREVIATIONS USED IN REMARKS
   TC - TEMPERATURES IN CELSIUS
  WCI - WIND CHILL INDEX
   HX - HEAT INDEX
  VSB - VISIBILITY
$$



USA.gov is the U.S. government's official web portal to all federal, state and local government web resources and services.